Independence, KS

8:52 AM CDT on March 23, 2017 (GMT -0500)
Independence Municipal

Weather History for KIDP - February, 2014

Change the Weather History Date:

Thursday, February 6, 2014

  Actual Average (KCFV) Record (KCFV)
Temperature  
Mean Temperature 10 °F -  
Max Temperature 14 °F 45 °F 73 °F (2017)
Min Temperature 5 °F 26 °F 7 °F (2014)
Degree Days  
Heating Degree Days 56    
Moisture  
Dew Point 0 °F    
Average Humidity 65    
Maximum Humidity 79    
Minimum Humidity 49    
Precipitation  
Precipitation 0.00 in - - ()
Sea Level Pressure  
Sea Level Pressure 30.59 in    
Wind  
Wind Speed 9 mph (NNE)    
Max Wind Speed 13 mph    
Max Gust Speed -    
Visibility 10 miles    
Events      
Averages and records for this station are not official NWS values.
T = Trace of Precipitation, MM = Missing Value Source: NWS Daily Summary

Daily Weather History Graph

Daily Weather History Graph

Search for Another Location

Airport or City:

Trip Planner

Search our weather history database for the weather conditions in past years. The results will help you decide how hot, cold, wet, or windy it might be!

Date:

Astronomy

Feb. 06, 2014 Rise Set
Actual Time 7:21 AM CST 5:53 PM CST
Civil Twilight 6:54 AM CST 6:20 PM CST
Nautical Twilight 6:23 AM CST 6:51 PM CST
Astronomical Twilight 5:53 AM CST 7:21 PM CST
Moon 11:26 AM CST (2/6) 12:38 AM CST (2/6)
Length of Visible Light 11h 26m
Length of Day
10h 32m
Waxing Crescent, 49% of the Moon is Illuminated
Feb 6
Waxing Crescent
Feb 6
First Quarter
Feb 14
Full
Feb 22
Last Quarter
Mar 1
New

Hourly Weather History & Observations

Time (CST) Temp. Windchill Dew Point Humidity Pressure Visibility Wind Dir Wind Speed Gust Speed Precip Events Conditions
12:15 AM 8.6 °F -6.3 °F -0.4 °F 67% 30.67 in 10.0 mi North 11.5 mph - N/A   Clear
12:35 AM 8.6 °F -7.0 °F -0.4 °F 67% 30.65 in 10.0 mi North 12.7 mph - N/A   Clear
12:55 AM 8.6 °F -4.7 °F 1.4 °F 73% 30.66 in 10.0 mi North 9.2 mph - N/A   Clear
1:15 AM 8.6 °F -5.5 °F 1.4 °F 73% 30.64 in 10.0 mi North 10.4 mph - N/A   Clear
1:35 AM 8.6 °F -5.5 °F -0.4 °F 67% 30.66 in 10.0 mi North 10.4 mph - N/A   Scattered Clouds
1:55 AM 8.6 °F -6.3 °F -0.4 °F 67% 30.66 in 10.0 mi North 11.5 mph - N/A   Mostly Cloudy
2:15 AM 8.6 °F -3.7 °F -0.4 °F 67% 30.66 in 10.0 mi North 8.1 mph - N/A   Overcast
2:35 AM 8.6 °F -3.7 °F -0.4 °F 67% 30.67 in 10.0 mi North 8.1 mph - N/A   Overcast
2:55 AM 6.8 °F -5.9 °F -0.4 °F 72% 30.66 in 10.0 mi North 8.1 mph - N/A   Scattered Clouds
3:15 AM 6.8 °F -7.8 °F -0.4 °F 72% 30.65 in 10.0 mi North 10.4 mph - N/A   Scattered Clouds
3:35 AM 6.8 °F -6.9 °F -0.4 °F 72% 30.65 in 10.0 mi North 9.2 mph - N/A   Overcast
3:55 AM 6.8 °F -6.9 °F -2.2 °F 67% 30.65 in 10.0 mi North 9.2 mph - N/A   Overcast
4:15 AM 6.8 °F -5.9 °F -0.4 °F 72% 30.66 in 10.0 mi North 8.1 mph - N/A   Overcast
4:35 AM 6.8 °F -5.9 °F -0.4 °F 72% 30.66 in 10.0 mi North 8.1 mph - N/A   Overcast
4:55 AM 6.8 °F -5.9 °F -0.4 °F 72% 30.65 in 10.0 mi North 8.1 mph - N/A   Overcast
5:15 AM 6.8 °F -4.8 °F -0.4 °F 72% 30.67 in 7.0 mi North 6.9 mph - N/A   Overcast
5:35 AM 6.8 °F -7.8 °F -0.4 °F 72% 30.66 in 7.0 mi North 10.4 mph - N/A   Overcast
5:55 AM 6.8 °F -6.9 °F 1.4 °F 79% 30.66 in 5.0 mi North 9.2 mph - N/A   Haze
6:15 AM 6.8 °F -5.9 °F 1.4 °F 79% 30.66 in 7.0 mi North 8.1 mph - N/A   Overcast
6:35 AM 6.8 °F -4.8 °F 1.4 °F 79% 30.66 in 10.0 mi North 6.9 mph - N/A   Overcast
6:55 AM 6.8 °F -4.8 °F -0.4 °F 72% 30.66 in 10.0 mi North 6.9 mph - N/A   Overcast
7:15 AM 6.8 °F -5.9 °F -0.4 °F 72% 30.67 in 7.0 mi North 8.1 mph - N/A   Overcast
7:35 AM 5.0 °F -8.1 °F -0.4 °F 78% 30.66 in 10.0 mi North 8.1 mph - N/A   Overcast
7:55 AM 5.0 °F -6.9 °F -0.4 °F 78% 30.66 in 10.0 mi North 6.9 mph - N/A   Mostly Cloudy
8:15 AM 6.8 °F -6.9 °F -0.4 °F 72% 30.66 in 10.0 mi NNE 9.2 mph - N/A   Scattered Clouds
8:35 AM 8.6 °F -3.7 °F 1.4 °F 73% 30.66 in 10.0 mi North 8.1 mph - N/A   Scattered Clouds
8:55 AM 8.6 °F -4.7 °F 1.4 °F 73% 30.66 in 10.0 mi NNE 9.2 mph - N/A   Mostly Cloudy
9:15 AM 8.6 °F -4.7 °F 1.4 °F 73% 30.66 in 10.0 mi NNE 9.2 mph - N/A   Mostly Cloudy
9:35 AM 8.6 °F -3.7 °F -0.4 °F 67% 30.66 in 10.0 mi NNE 8.1 mph - N/A   Mostly Cloudy
9:55 AM 8.6 °F -3.7 °F -0.4 °F 67% 30.67 in 10.0 mi NNE 8.1 mph - N/A   Overcast
10:15 AM 8.6 °F -4.7 °F -0.4 °F 67% 30.67 in 10.0 mi North 9.2 mph - N/A   Mostly Cloudy
10:35 AM 10.4 °F -1.5 °F -0.4 °F 62% 30.66 in 10.0 mi NNE 8.1 mph - N/A   Clear
10:55 AM 10.4 °F -3.3 °F -0.4 °F 62% 30.66 in 10.0 mi NNE 10.4 mph - N/A   Scattered Clouds
11:15 AM 10.4 °F -1.5 °F -0.4 °F 62% 30.66 in 10.0 mi NNE 8.1 mph - N/A   Mostly Cloudy
11:35 AM 10.4 °F -1.5 °F -0.4 °F 62% 30.65 in 10.0 mi North 8.1 mph - N/A   Scattered Clouds
11:55 AM 10.4 °F -2.4 °F -0.4 °F 62% 30.64 in 10.0 mi North 9.2 mph - N/A   Clear
12:15 PM 12.2 °F 0.7 °F -0.4 °F 57% 30.62 in 10.0 mi North 8.1 mph - N/A   Clear
12:35 PM 12.2 °F 2.9 °F -0.4 °F 57% 30.61 in 10.0 mi NNE 5.8 mph - N/A   Clear
12:55 PM 12.2 °F 0.7 °F -2.2 °F 53% 30.60 in 10.0 mi NNE 8.1 mph - N/A   Mostly Cloudy
1:15 PM 12.2 °F 2.9 °F -0.4 °F 57% 30.59 in 10.0 mi NNE 5.8 mph - N/A   Overcast
1:35 PM 12.2 °F 0.7 °F -0.4 °F 57% 30.58 in 10.0 mi NE 8.1 mph - N/A   Overcast
1:55 PM 12.2 °F 1.7 °F -0.4 °F 57% 30.57 in 10.0 mi NNE 6.9 mph - N/A   Overcast
2:15 PM 14.0 °F 5.1 °F 1.4 °F 57% 30.56 in 10.0 mi NE 5.8 mph - N/A   Overcast
2:35 PM 14.0 °F 3.9 °F 1.4 °F 57% 30.55 in 10.0 mi NNE 6.9 mph - N/A   Overcast
2:55 PM 14.0 °F 2.9 °F 1.4 °F 57% 30.54 in 10.0 mi NE 8.1 mph - N/A   Overcast
3:15 PM 14.0 °F 2.9 °F -0.4 °F 53% 30.53 in 10.0 mi NNE 8.1 mph - N/A   Mostly Cloudy
3:35 PM 14.0 °F 2.0 °F 1.4 °F 57% 30.54 in 10.0 mi NNE 9.2 mph - N/A   Clear
3:55 PM 14.0 °F 3.9 °F -0.4 °F 53% 30.52 in 10.0 mi NNE 6.9 mph - N/A   Clear
4:15 PM 14.0 °F 2.9 °F 1.4 °F 57% 30.53 in 10.0 mi NNE 8.1 mph - N/A   Scattered Clouds
4:35 PM 14.0 °F 1.2 °F -0.4 °F 53% 30.52 in 10.0 mi NE 10.4 mph - N/A   Overcast
4:55 PM 14.0 °F 2.9 °F -2.2 °F 49% 30.52 in 10.0 mi NNE 8.1 mph - N/A   Overcast
5:15 PM 12.2 °F 1.7 °F -0.4 °F 57% 30.51 in 10.0 mi ENE 6.9 mph - N/A   Mostly Cloudy
5:35 PM 12.2 °F 1.7 °F -0.4 °F 57% 30.51 in 10.0 mi NE 6.9 mph - N/A   Overcast
5:55 PM 12.2 °F 4.3 °F -0.4 °F 57% 30.51 in 10.0 mi NE 4.6 mph - N/A   Overcast
6:15 PM 12.2 °F 2.9 °F -0.4 °F 57% 30.51 in 10.0 mi NNE 5.8 mph - N/A   Overcast
6:35 PM 12.2 °F 2.9 °F 1.4 °F 62% 30.52 in 10.0 mi NNE 5.8 mph - N/A   Overcast
6:55 PM 12.2 °F 4.3 °F -0.4 °F 57% 30.52 in 10.0 mi NNE 4.6 mph - N/A   Overcast
7:15 PM 12.2 °F 6.1 °F 1.4 °F 62% 30.52 in 10.0 mi NNE 3.5 mph - N/A   Overcast
7:35 PM 12.2 °F 4.3 °F 1.4 °F 62% 30.52 in 10.0 mi NNE 4.6 mph - N/A   Overcast
7:55 PM 12.2 °F 2.9 °F 1.4 °F 62% 30.51 in 10.0 mi North 5.8 mph - N/A   Overcast
8:15 PM 12.2 °F 4.3 °F 1.4 °F 62% 30.52 in 10.0 mi North 4.6 mph - N/A   Overcast
8:35 PM 12.2 °F 2.9 °F 1.4 °F 62% 30.51 in 10.0 mi North 5.8 mph - N/A   Overcast
8:55 PM 10.4 °F 0.8 °F 1.4 °F 67% 30.51 in 10.0 mi North 5.8 mph - N/A   Overcast
9:15 PM 10.4 °F 2.2 °F 1.4 °F 67% 30.51 in 10.0 mi North 4.6 mph - N/A   Overcast
9:35 PM 10.4 °F 0.8 °F 1.4 °F 67% 30.51 in 10.0 mi NNE 5.8 mph - N/A   Overcast
9:55 PM 10.4 °F -0.4 °F 1.4 °F 67% 30.50 in 10.0 mi NNE 6.9 mph - N/A   Overcast
10:15 PM 10.4 °F -0.4 °F 1.4 °F 67% 30.50 in 10.0 mi NNE 6.9 mph - N/A   Overcast
10:35 PM 10.4 °F -0.4 °F -0.4 °F 62% 30.49 in 10.0 mi NNE 6.9 mph - N/A   Overcast
10:55 PM 10.4 °F 0.8 °F -0.4 °F 62% 30.48 in 10.0 mi NE 5.8 mph - N/A   Overcast
11:15 PM 10.4 °F -0.4 °F 1.4 °F 67% 30.47 in 10.0 mi NE 6.9 mph - N/A   Overcast
11:35 PM 12.2 °F 1.7 °F -0.4 °F 57% 30.46 in 10.0 mi NNE 6.9 mph - N/A   Overcast
11:55 PM 10.4 °F -0.4 °F -0.4 °F 62% 30.46 in 10.0 mi NE 6.9 mph - N/A   Overcast